When you browse on this site, cookies collect data to enhance your experience and personalize the content and advertising you see.
Visit our Privacy Policy to learn more. By continuing to use the site, you agree to this use of cookies and data.
  • In Latvia
  • List of Countries
  • For 7 days
  • Water Temperature
  • Weather Map
  • Weather Widgets
  • user-avatar
    Login

    Hourly Weather Kranston

    Today, 21 February, Friday

    Time Temperature Precipitation Wind Pressure Humidity
    00:00 -7°C° 0 mm 3 mps 771 mmHg 54%
    01:00 -8°C° 0 mm 4 mps 771 mmHg 59%
    08:00 -10°C° 0 mm 4 mps 771 mmHg 39%
    09:00 -8°C° 0 mm 3 mps 771 mmHg 37%
    10:00 -7°C° 0 mm 3 mps 771 mmHg 34%
    11:00 -5°C° 0 mm 3 mps 771 mmHg 31%
    12:00 -3°C° 0 mm 2 mps 771 mmHg 27%
    13:00 0°C° 0 mm 1 mps 770 mmHg 24%
    14:00 0°C° 0 mm 1 mps 770 mmHg 22%
    15:00 +1°C° 0 mm 1 mps 770 mmHg 21%
    16:00 +1°C° 0 mm 1 mps 770 mmHg 19%
    17:00 0°C° 0 mm 1 mps 770 mmHg 24%
    18:00 -3°C° 0 mm 2 mps 770 mmHg 28%
    19:00 -4°C° 0 mm 2 mps 770 mmHg 33%
    20:00 -4°C° 0 mm 2 mps 769 mmHg 33%
    21:00 -4°C° 0 mm 2 mps 769 mmHg 34%
    22:00 -5°C° 0 mm 3 mps 769 mmHg 34%
    23:00 -5°C° 0 mm 3 mps 768 mmHg 36%

    Tomorrow, 22 February, Saturday

    Time Temperature Precipitation Wind Pressure Humidity
    00:00 -5°C° 0 mm 3 mps 768 mmHg 38%
    01:00 -4°C° 0 mm 4 mps 767 mmHg 39%
    02:00 -4°C° 0 mm 4 mps 766 mmHg 41%
    03:00 -4°C° 0 mm 4 mps 766 mmHg 42%
    04:00 -4°C° 0 mm 4 mps 765 mmHg 43%
    05:00 -4°C° 0 mm 4 mps 765 mmHg 44%
    06:00 -4°C° 0 mm 3 mps 765 mmHg 45%
    07:00 -5°C° 0 mm 3 mps 765 mmHg 46%
    08:00 -2°C° 0 mm 3 mps 765 mmHg 41%
    09:00 0°C° 0 mm 3 mps 765 mmHg 36%
    10:00 +1°C° 0 mm 4 mps 765 mmHg 31%
    11:00 +3°C° 0 mm 4 mps 765 mmHg 29%
    12:00 +4°C° 0 mm 4 mps 764 mmHg 28%
    13:00 +5°C° 0 mm 4 mps 764 mmHg 27%
    14:00 +5°C° 0 mm 4 mps 763 mmHg 30%
    15:00 +5°C° 0 mm 3 mps 763 mmHg 32%
    16:00 +5°C° 0 mm 3 mps 763 mmHg 35%
    17:00 +3°C° 0 mm 3 mps 763 mmHg 43%
    18:00 +2°C° 0 mm 2 mps 764 mmHg 51%
    19:00 -1°C° 0 mm 2 mps 764 mmHg 59%
    20:00 -1°C° 0 mm 2 mps 764 mmHg 63%
    21:00 -2°C° 0 mm 2 mps 765 mmHg 66%
    22:00 -2°C° 0 mm 2 mps 765 mmHg 70%
    23:00 -2°C° 0 mm 2 mps 765 mmHg 70%

    Day after tomorrow, 23 February, Sunday

    Time Temperature Precipitation Wind Pressure Humidity
    00:00 -2°C° 0 mm 2 mps 764 mmHg 70%
    01:00 -2°C° 0 mm 2 mps 764 mmHg 71%
    02:00 -2°C° 0 mm 2 mps 764 mmHg 71%
    03:00 -2°C° 0 mm 2 mps 764 mmHg 70%
    04:00 -2°C° 0 mm 2 mps 764 mmHg 70%
    05:00 -2°C° 0 mm 2 mps 764 mmHg 70%
    06:00 -2°C° 0 mm 2 mps 764 mmHg 70%
    07:00 -2°C° 0 mm 2 mps 764 mmHg 70%
    08:00 +1°C° 0 mm 2 mps 764 mmHg 63%
    09:00 +2°C° 0 mm 3 mps 764 mmHg 56%
    10:00 +4°C° 0 mm 3 mps 764 mmHg 50%
    11:00 +7°C° 0 mm 3 mps 764 mmHg 48%
    12:00 +8°C° 0 mm 3 mps 764 mmHg 47%
    13:00 +9°C° 0 mm 3 mps 763 mmHg 46%
    14:00 +8°C° 0 mm 3 mps 763 mmHg 49%
    15:00 +8°C° 0 mm 2 mps 763 mmHg 52%
    16:00 +8°C° 0 mm 2 mps 762 mmHg 55%
    17:00 +6°C° 0 mm 2 mps 763 mmHg 61%
    18:00 +4°C° 0 mm 2 mps 763 mmHg 68%
    19:00 +2°C° 0 mm 2 mps 764 mmHg 74%
    20:00 +2°C° 0 mm 2 mps 764 mmHg 75%
    21:00 +2°C° 0 mm 2 mps 763 mmHg 76%
    22:00 +1°C° 0 mm 2 mps 763 mmHg 77%
    23:00 +1°C° 0 mm 2 mps 763 mmHg 77%

    24 February, Monday

    Time Temperature Precipitation Wind Pressure Humidity
    00:00 +1°C° 0 mm 2 mps 763 mmHg 77%
    01:00 +1°C° 0 mm 2 mps 763 mmHg 78%
    02:00 +1°C° 0 mm 2 mps 763 mmHg 78%
    03:00 +1°C° 0 mm 2 mps 762 mmHg 78%
    04:00 +1°C° 0 mm 2 mps 762 mmHg 79%
    05:00 +1°C° 0 mm 2 mps 762 mmHg 79%
    06:00 0°C° 0 mm 3 mps 762 mmHg 80%
    07:00 +1°C° 0 mm 3 mps 762 mmHg 81%
    08:00 +3°C° 0 mm 3 mps 762 mmHg 74%
    09:00 +5°C° 0 mm 3 mps 762 mmHg 67%
    10:00 +7°C° 0 mm 4 mps 762 mmHg 60%
    11:00 +8°C° 0 mm 4 mps 762 mmHg 59%
    12:00 +10°C° 0 mm 4 mps 761 mmHg 57%
    13:00 +11°C° 0 mm 4 mps 761 mmHg 56%
    14:00 +11°C° 0 mm 4 mps 760 mmHg 60%
    15:00 +10°C° 0 mm 4 mps 760 mmHg 64%
    16:00 +10°C° 0 mm 3 mps 760 mmHg 68%
    17:00 +8°C° 0 mm 3 mps 760 mmHg 73%
    18:00 +7°C° 0 mm 3 mps 760 mmHg 78%
    19:00 +5°C° 0 mm 3 mps 760 mmHg 83%
    20:00 +5°C° 0 mm 3 mps 760 mmHg 85%
    21:00 +5°C° 0 mm 3 mps 760 mmHg 87%
    22:00 +5°C° 0 mm 3 mps 760 mmHg 89%
    23:00 +6°C° 0.9 mm 2 mps 760 mmHg 91%

    25 February, Tuesday

    Time Temperature Precipitation Wind Pressure Humidity
    00:00 +6°C° 0.9 mm 2 mps 759 mmHg 93%
    01:00 +6°C° 0.9 mm 2 mps 759 mmHg 96%
    02:00 +6°C° 0.3 mm 2 mps 759 mmHg 96%
    03:00 +7°C° 0.3 mm 1 mps 759 mmHg 97%
    04:00 +7°C° 0.3 mm 1 mps 758 mmHg 97%
    05:00 +6°C° 0 mm 1 mps 759 mmHg 97%
    06:00 +6°C° 0 mm 1 mps 759 mmHg 97%
    07:00 +6°C° 0 mm 1 mps 759 mmHg 97%
    08:00 +7°C° 0 mm 1 mps 759 mmHg 91%
    09:00 +9°C° 0 mm 1 mps 759 mmHg 86%
    10:00 +9°C° 0 mm 0 mps 759 mmHg 80%
    11:00 +10°C° 0.1 mm 1 mps 759 mmHg 82%
    12:00 +10°C° 0.1 mm 1 mps 759 mmHg 83%
    13:00 +8°C° 0.1 mm 2 mps 759 mmHg 85%
    14:00 +8°C° 0.7 mm 2 mps 758 mmHg 88%
    15:00 +7°C° 0.7 mm 2 mps 758 mmHg 90%
    16:00 +7°C° 0.7 mm 3 mps 758 mmHg 93%
    17:00 +5°C° 0.2 mm 3 mps 759 mmHg 93%
    18:00 +5°C° 0.2 mm 3 mps 759 mmHg 92%
    19:00 +5°C° 0.2 mm 3 mps 760 mmHg 92%
    20:00 +5°C° 0.2 mm 3 mps 760 mmHg 92%
    21:00 +5°C° 0.2 mm 3 mps 760 mmHg 93%
    22:00 +5°C° 0.2 mm 3 mps 760 mmHg 93%
    23:00 +4°C° 0.4 mm 3 mps 760 mmHg 93%

    26 February, Wednesday

    Time Temperature Precipitation Wind Pressure Humidity
    00:00 +4°C° 0.4 mm 3 mps 760 mmHg 93%
    01:00 +4°C° 0.4 mm 3 mps 760 mmHg 93%
    02:00 +4°C° 0.1 mm 3 mps 760 mmHg 93%
    03:00 +4°C° 0.1 mm 3 mps 760 mmHg 92%
    04:00 +4°C° 0.1 mm 3 mps 761 mmHg 92%
    05:00 +4°C° 0 mm 3 mps 761 mmHg 92%
    06:00 +3°C° 0 mm 3 mps 761 mmHg 91%
    07:00 +3°C° 0 mm 4 mps 761 mmHg 90%
    08:00 +4°C° 0 mm 4 mps 761 mmHg 88%
    09:00 +5°C° 0 mm 4 mps 761 mmHg 85%
    10:00 +5°C° 0 mm 4 mps 761 mmHg 82%
    11:00 +5°C° 0 mm 3 mps 761 mmHg 84%
    12:00 +5°C° 0 mm 3 mps 760 mmHg 85%
    13:00 +5°C° 0 mm 3 mps 760 mmHg 86%
    14:00 +5°C° 0 mm 4 mps 759 mmHg 88%
    15:00 +5°C° 0 mm 4 mps 759 mmHg 90%
    16:00 +5°C° 0 mm 5 mps 758 mmHg 92%
    17:00 +5°C° 0.2 mm 5 mps 757 mmHg 92%
    18:00 +5°C° 0.2 mm 5 mps 756 mmHg 92%
    19:00 +4°C° 0.2 mm 6 mps 756 mmHg 93%
    20:00 +4°C° 0.8 mm 6 mps 754 mmHg 93%
    21:00 +4°C° 0.8 mm 6 mps 753 mmHg 94%
    22:00 +5°C° 0.8 mm 6 mps 751 mmHg 94%
    23:00 +5°C° 1.6 mm 6 mps 750 mmHg 94%
    Show more